Flag for Sweden Weather past 2 weeks in Gävle, Sweden

Now
40 °F

Rain showers. Cloudy.


Feels Like: 40 °F
Forecast: 35 / 50 °F
Wind: 1 mph from Northwest

Location: Films Kyrkby

Current Time: Sep 23, 2014 at 11:20:47 AM

Latest Report: Sep 23, 2014 at 10:00 AM


Visibility: 31 mi

Pressure: 29.98 "Hg

Humidity: 93%

Dew point: 38 °F

Location of GävleLocation

Historic Weather in Gävle — Graph

°F

Gävle temperature yesterday

Maximum temperature yesterday: 53 °F (at 4:00 AM)
Minimum temperature yesterday: 42 °F (at 7:00 PM)
Average temperature yesterday: 48 °F

Past Weeks' High & Low Weather Summary

 TemperatureHumidityPressure
High71 °F (Sep 8, 3:00 PM)100% (Sep 10, 8:00 AM)30.50 "Hg (Sep 10, 8:00 AM)
Low34 °F (Sep 14, 6:00 AM)43% (Sep 14, 12:00 PM)29.55 "Hg (Sep 22, 2:00 AM)
Average52 °F86%30.15 "Hg
* Reported Sep 8 10:00 AM — Sep 23 10:00 AM, Gävle, Weather by CustomWeather, © 2014

Note: Actual official high and low records may vary slightly from our data, if they occured in-between our weather recording intervals... More about our weather records

Advertising

Gävle weather history for previous 24 hours

 ConditionsComfort  
Time TempWeatherWind HumidityBarometerVisibility
10:00 AM
Sep 23
40 °FRain showers. Cloudy.1 mph93%29.98 "Hg31 mi
9:00 AM40 °FChilly.2 mph95%29.96 "Hg22 mi
8:00 AM38 °FChilly.1 mph95%29.96 "Hg19 mi
7:00 AM36 °FChilly.1 mph95%29.95 "Hg12 mi
6:00 AM37 °FRain showers. Overcast.1 mph95%29.95 "Hg12 mi
5:00 AM38 °FChilly.2 mph91%29.94 "Hg19 mi
4:00 AM39 °FChilly.1 mph86%29.94 "Hg31 mi
3:00 AM38 °FChilly.2 mph88%29.93 "Hg28 mi
2:00 AM40 °FQuite cool.2 mph85%29.93 "Hg28 mi
1:00 AM41 °FRain showers. Overcast.2 mph88%29.93 "Hg12 mi
12:00 AM41 °FQuite cool.2 mph83%29.93 "Hg28 mi
11:00 PM
Sep 22
43 °FQuite cool.3 mph72%29.92 "Hg28 mi
10:00 PM44 °FRain showers. Overcast.5 mph72%29.92 "Hg16 mi
9:00 PM44 °FQuite cool.3 mph75%29.92 "Hg25 mi
8:00 PM43 °FQuite cool.5 mph81%29.92 "Hg25 mi
7:00 PM42 °FQuite cool.3 mph89%29.92 "Hg16 mi
6:00 PM45 °FRain showers. Cloudy.6 mph81%29.91 "Hg22 mi
5:00 PM47 °FRain showers. Cloudy.3 mph80%29.89 "Hg19 mi
4:00 PM48 °FCool.6 mph68%29.88 "Hg25 mi
3:00 PM49 °FCool.7 mph64%29.86 "Hg25 mi
2:00 PM50 °FCool.5 mph65%29.83 "Hg25 mi
1:00 PM49 °FCool.7 mph69%29.82 "Hg22 mi
12:00 PM46 °FLight rain. Cloudy.6 mph77%29.80 "Hg22 mi
11:00 AM46 °FLight rain. Cloudy.6 mph89%29.78 "Hg7 mi
Weather by CustomWeather, © 2014

See weather overviewHow to use our weather pages

Japan